Notices

What's New in latest Release from April 7th, 2021:

- Updated Glossary, including Speed of Maximum Gust, and Total Hourly Precipitation

- Updated national and regional climate services offices contacts and prices information

- Addition of station inventory lists for 1981-2010, 1971-2000, and 1961-1990 Normals.

If you haven't already, please take our survey and provide feedback about our website: https://eccc.sondage-survey.ca/f/LanguageSelection.aspx?s=442ca660-fcf1-47c0-95a9-59707d6fd709

Hourly Data Report for January 01, 2021

CARBERRY CS
MANITOBA
Current Station Operator: ECCC - MSC

49°54'20.900" N
99°21'26.800" W
383.50 m
5010547
71170
WZE

Download Data

Hourly Data (January 2021)
Hourly Data Report for January 1, 2021
TIME
LST
Temp Definition
°C
Dew Point Definition
°C
Rel Hum Definition
%
Precip. Amount Definition
mm

Wind Dir Definition
10's deg

Wind Spd Definition
km/h
Visibility Definition
km
Stn Press Definition
kPa
Hmdx Definition


Wind Chill Definition


Weather Definition


00:00 -8.6 -10.3 87 0.2 3 6   97.04   -12 LegendNANA
01:00 -8.2 -10.6 83 0.0 1 9   97.09   -13 LegendNANA
02:00 -8.4 -10.4 86 0.0 1 8   97.08   -13 LegendNANA
03:00 -8.3 -10.8 83 0.0 5 8   97.20   -12 LegendNANA
04:00 -8.3 -10.9 82 0.0 3 8   97.20   -12 LegendNANA
05:00 -8.5 -11.0 82 0.0 6 3   97.18   -10 LegendNANA
06:00 -8.6 -11.3 80 0.0 6 2   97.21   -10 LegendNANA
07:00 -8.8 -11.1 83 0.0   0   97.24     LegendNANA
08:00 -8.6 -8.7 100 0.0 21 8   97.18   -13 LegendNANA
09:00 -8.3 -8.4 100 0.0 20 7   97.15   -12 LegendNANA
10:00 -7.9 -8.0 99 0.0 20 8   97.11   -12 LegendNANA
11:00 -7.4 -7.7 98 0.0 21 9   97.10   -12 LegendNANA
12:00 -7.0 -7.3 98 0.0 22 10   97.00   -12 LegendNANA
13:00 -6.5 -6.8 98 0.0 21 14   96.90   -12 LegendNANA
14:00 -6.4 -6.6 98 0.0 22 14   96.79   -12 LegendNANA
15:00 -6.2 -6.3 99 0.0 22 12   96.76   -11 LegendNANA
16:00 -6.6 -6.9 98 0.0 24 10   96.75   -11 LegendNANA
17:00 -7.2 -7.5 98 0.0 23 8   96.72   -11 LegendNANA
18:00 -8.1 -8.6 97 0.0 22 9   96.67   -13 LegendNANA
19:00 -8.8 -9.3 96 0.0 24 7   96.63   -13 LegendNANA
20:00 -8.0 -8.4 97 0.0 24 11   96.62   -13 LegendNANA
21:00 -8.4 -8.8 96 0.0 24 11   96.54   -14 LegendNANA
22:00 -10.3 -11.2 93 0.0 24 8   96.49   -15 LegendNANA
23:00 -11.0 -12.0 92 0.0 22 9   96.41   -16 LegendNANA

Notes on Data Quality.

Legend

  • E = Estimated
  • M = Missing
  • NA = Not Available*
  • [empty] = Indicates an unobserved value
Date modified: